Wind_Speed
16 18 17 18 18 18 19 19 20 21 19 18 17 15 13 11 10 12 12 8 8 10 8 8 12 14 15 8 15 13 2 4 5 7 7 3 3 3 7 8 4 3 8 12 24
15 17 18 19 20 20 19 19 20 22 22 21 19 16 12 12 13 16 10 9 9 10 9 10 11 13 7 9 7 6 5 7 5 3 1 0 5 5 2 4 5 11 17 22 20
17 17 18 19 20 18 18 18 20 22 23 24 22 16 12 10 13 3 3 12 11 9 8 11 10 10 8 8 8 5 5 9 3 2 3 2 2 2 4 3 9 16 21 21 20
17 19 19 19 19 17 18 19 20 20 23 26 22 15 11 7 4 1 2 2 7 8 10 13 11 7 6 6 15 3 9 20 8 3 1 2 5 3 7 7 5 6 20 22 22
19 20 18 17 17 18 19 20 21 22 24 24 20 13 9 5 9 9 7 7 7 9 11 13 9 7 4 5 13 11 7 11 3 5 2 3 5 6 11 17 16 12 19 23 21
23 23 21 21 20 20 21 23 23 23 23 21 16 12 7 3 6 6 6 6 7 9 11 13 4 11 7 4 8 0 5 11 9 6 3 3 5 3 8 22 22 17 22 22 20
21 22 20 23 23 24 24 25 23 20 22 18 14 9 9 13 10 6 5 5 7 11 12 13 10 7 4 3 0 2 2 6 4 6 1 3 8 13 30 13 18 25 20 21 20
24 22 20 21 26 27 28 22 22 17 18 16 9 6 6 8 11 8 9 6 7 12 10 13 8 3 1 2 2 3 2 1 4 10 5 7 10 8 15 29 18 20 20 20 19
28 27 26 21 20 22 22 19 14 15 13 8 2 4 6 4 8 8 6 3 7 11 10 8 7 2 2 2 2 2 4 7 5 10 6 7 7 4 3 23 20 19 19 20 20
24 27 27 23 21 18 15 11 9 10 5 2 5 5 6 4 4 5 8 5 4 9 7 6 4 2 1 4 5 6 4 5 6 7 4 6 14 10 14 8 17 20 19 21 23
26 29 30 21 19 14 10 6 4 1 3 8 5 9 13 10 6 6 10 11 6 5 4 5 3 10 10 6 6 1 3 3 1 2 4 9 12 15 14 19 21 23 23 26 25
27 29 29 21 11 8 5 6 8 7 13 18 24 27 25 16 6 10 14 10 7 5 4 3 10 7 8 9 10 11 4 5 0 2 2 2 13 13 9 13 26 30 28 31 28
29 30 28 14 10 7 10 10 7 8 5 11 6 8 10 13 6 11 20 10 5 6 7 6 4 2 10 5 7 7 6 4 5 3 4 3 9 6 6 17 17 29 36 32 37
30 31 30 15 1 9 2 8 8 5 4 5 1 2 4 4 3 5 19 5 4 9 6 7 5 5 3 5 6 5 3 5 4 3 4 3 5 6 4 6 6 15 30 34 31
29 32 26 10 10 4 7 6 10 3 5 3 2 2 2 4 3 2 16 4 3 4 4 5 5 4 4 4 5 5 2 4 2 2 3 2 2 8 3 7 9 10 20 25 31
30 29 22 11 5 5 8 7 3 5 6 4 2 2 3 2 2 2 3 2 2 1 1 0 1 2 3 3 2 6 5 5 4 3 1 8 7 5 5 6 3 6 18 20 26
31 27 15 13 11 4 4 1 4 4 5 5 2 4 4 6 5 6 5 5 6 4 5 1 3 2 3 4 6 1 5 2 3 2 6 4 4 9 6 6 7 11 19 21 30
33 24 10 12 18 3 1 1 3 5 7 5 3 3 5 5 5 8 5 4 7 1 2 7 5 9 6 5 7 6 4 5 7 4 4 4 6 6 5 4 9 24 26 27 30
32 16 11 13 15 1 1 2 7 7 3 4 5 1 5 3 4 5 8 6 9 15 8 5 4 2 3 2 2 6 4 3 5 1 3 4 7 8 3 3 6 16 26 28 29
27 19 6 13 15 2 0 4 4 3 3 4 2 4 3 4 2 5 6 6 6 13 5 5 1 1 2 0 1 2 1 2 2 2 4 4 5 6 7 9 8 9 17 29 30
20 10 7 16 11 1 3 5 4 11 17 7 3 5 5 3 5 3 5 6 8 4 15 5 4 1 2 7 8 2 2 1 2 4 5 2 6 6 7 13 14 11 24 29 30
8 2 11 15 5 1 2 5 17 12 25 5 5 6 8 5 4 5 6 5 2 7 8 5 5 5 8 1 2 4 6 6 4 6 4 3 7 2 5 10 12 16 27 27 26
11 7 1 7 1 2 7 6 10 8 10 9 8 7 5 4 7 7 5 4 5 4 9 7 2 2 5 3 1 6 6 4 3 3 8 4 6 3 5 5 11 18 22 22 22
6 3 4 4 3 3 1 3 4 9 8 8 12 10 15 10 9 7 4 1 6 4 4 2 4 7 8 4 5 5 7 13 8 6 6 14 6 5 4 3 5 17 22 23 23
5 4 4 3 3 2 2 3 8 4 5 5 5 9 11 6 11 5 8 10 5 7 4 3 5 5 7 5 4 5 5 11 18 16 12 8 17 15 6 8 11 20 21 20 20
6 4 4 5 9 6 6 5 10 5 5 4 4 16 3 6 10 6 12 5 9 2 6 2 3 3 3 5 6 11 14 10 17 17 17 12 11 9 8 11 11 18 22 21 19
16 24 19 11 6 6 9 8 8 2 9 17 11 9 15 15 19 23 25 25 22 14 6 6 7 4 5 3 5 7 21 22 18 7 12 17 18 8 8 10 17 24 21 30 26
Wind_Direction
344 345 351 350 355 357 357 357 356 356 351 343 334 329 322 312 308 294 260 243 247 252 255 218 201 192 184 211 208 220 214 221 231 242 255 207 106 94 137 138 129 129 162 172 176
327 332 334 337 340 344 347 347 347 349 347 344 333 325 321 313 309 286 269 243 247 260 254 213 200 179 188 211 209 186 198 227 230 236 356 8 99 164 150 167 142 115 140 156 167
320 316 315 327 331 332 339 343 341 344 342 337 330 318 317 314 313 283 332 235 247 264 221 191 175 187 211 211 211 202 206 233 317 106 54 11 40 108 148 253 210 181 173 173 177
313 309 307 311 318 322 329 333 339 338 336 334 324 312 303 304 289 322 5 228 242 238 206 192 194 202 191 215 224 230 235 245 247 273 171 80 329 338 208 214 171 192 219 194 187
308 306 305 308 305 310 319 327 328 331 333 332 322 306 285 264 257 274 283 269 243 225 204 179 204 196 187 207 241 222 242 256 174 174 226 288 276 258 259 236 248 250 194 191 192
294 297 294 295 298 301 307 317 320 323 328 328 320 300 260 239 265 279 279 268 231 203 184 174 185 215 294 223 205 7 231 253 259 170 185 179 266 258 248 238 232 218 184 187 196
312 307 295 287 289 291 301 308 316 313 321 319 313 280 249 261 259 274 287 264 219 179 173 187 238 227 267 287 64 103 354 336 236 181 145 132 282 236 238 223 224 217 217 217 218
349 341 323 303 294 293 292 295 312 308 313 312 299 251 248 254 266 269 260 233 206 191 186 190 217 221 274 290 19 128 75 220 248 162 175 135 264 278 276 211 210 210 211 212 213
347 346 341 332 313 302 296 293 309 304 305 301 246 263 270 258 252 255 223 217 182 193 191 190 178 185 135 94 8 290 201 211 292 180 137 181 265 278 155 196 211 217 219 218 210
347 344 342 337 330 321 314 311 306 291 288 246 208 280 241 244 243 229 198 180 150 170 162 154 166 139 145 143 211 200 222 243 204 210 145 198 257 271 266 249 221 219 222 214 201
340 338 339 349 339 341 347 2 352 6 232 242 253 250 277 254 252 212 186 171 149 170 166 186 157 210 196 203 249 57 208 308 149 321 151 228 261 260 256 247 232 226 214 202 200
340 337 342 358 2 23 44 66 47 324 300 278 269 262 260 249 212 201 180 177 180 186 163 108 238 220 209 210 227 260 269 262 202 195 188 253 268 265 244 241 226 216 214 204 198
355 352 349 8 41 44 65 50 354 326 271 301 290 255 214 204 221 217 187 188 186 190 197 166 212 186 198 208 196 226 205 216 237 187 251 14 289 271 269 236 233 223 217 208 203
353 351 351 360 68 29 29 3 353 337 327 276 335 49 156 129 255 216 191 195 222 208 196 228 224 156 187 219 156 223 237 173 166 104 228 136 272 297 249 244 211 189 212 213 203
354 355 350 357 331 356 314 333 336 25 20 289 106 125 167 180 143 179 191 210 208 216 152 234 157 158 169 202 181 219 127 136 128 153 53 237 77 266 253 249 228 213 200 199 202
354 355 352 1 5 342 334 325 22 44 266 308 118 145 118 244 192 95 185 215 262 270 8 144 245 160 160 58 337 143 72 44 45 74 344 226 170 272 211 221 233 188 205 198 194
354 355 357 7 350 306 311 68 58 134 329 295 260 170 216 193 197 166 167 189 183 145 224 299 216 143 138 86 3 63 106 17 352 359 219 325 158 247 250 236 209 179 182 180 179
348 354 31 15 347 328 262 116 132 236 247 317 297 240 225 163 227 183 164 224 241 223 127 180 275 169 181 202 181 188 180 167 200 204 248 359 229 246 228 223 199 172 169 167 172
346 12 35 3 344 290 46 186 204 213 232 298 338 98 297 288 209 156 205 210 202 184 185 188 249 15 43 70 134 187 205 190 100 48 64 219 275 290 192 111 109 155 170 178 183
351 348 8 355 359 153 116 243 234 262 19 12 287 158 238 276 252 187 202 225 213 181 206 182 45 320 279 61 63 184 203 101 3 180 253 274 271 239 210 201 181 164 182 186 191
355 342 341 325 339 204 232 231 306 315 5 348 306 287 248 271 206 251 243 286 189 172 177 156 125 196 122 203 184 138 215 221 153 169 183 188 254 225 223 194 190 197 188 189 193
357 351 345 16 33 277 282 312 350 0 343 297 259 275 252 228 247 231 240 243 134 137 171 193 154 204 205 197 210 201 207 185 160 236 219 176 261 340 305 202 180 190 199 197 194
326 282 28 349 88 307 323 326 318 21 339 335 310 333 343 320 303 215 222 325 310 168 167 183 224 79 328 351 293 215 196 186 118 98 221 185 259 330 346 76 169 173 190 192 193
316 321 292 257 232 151 98 266 320 319 321 348 306 298 357 329 265 277 259 178 319 321 269 206 160 171 194 166 133 199 208 198 181 200 203 229 284 278 237 163 139 171 177 179 189
232 243 232 266 283 195 126 247 282 287 232 326 314 338 338 297 306 279 348 331 247 230 235 185 213 188 241 198 172 202 208 205 213 217 205 218 218 247 212 208 205 189 188 194 207
239 238 232 255 248 224 239 229 253 249 216 246 220 292 272 292 310 317 333 349 301 295 187 169 217 195 287 211 204 248 242 225 224 232 245 265 270 237 251 233 214 212 197 211 231
281 256 243 245 238 223 215 219 243 141 273 260 261 274 281 280 276 283 279 270 256 270 269 188 158 142 254 237 123 277 236 220 225 200 203 226 237 244 262 208 219 222 222 239 245
Height
1518 1515 1513 1510 1508 1505 1502 1499 1496 1493 1491 1488 1485 1483 1481 1480 1479 1479 1478 1479 1478 1480 1481 1482 1483 1486 1488 1489 1491 1493 1499 1499 1493 1490 1483 1478 1477 1477 1479 1482 1484 1485 1486 1486 1492
1516 1513 1511 1509 1507 1504 1501 1498 1495 1492 1490 1487 1484 1481 1479 1478 1477 1475 1476 1476 1477 1478 1479 1480 1482 1484 1487 1487 1488 1489 1493 1490 1482 1482 1481 1479 1476 1478 1480 1482 1484 1485 1487 1488 1491
1514 1511 1509 1507 1504 1502 1499 1496 1493 1491 1488 1485 1481 1479 1478 1477 1475 1471 1471 1473 1475 1476 1477 1479 1481 1484 1485 1484 1484 1483 1487 1483 1482 1482 1481 1480 1477 1479 1480 1482 1481 1482 1484 1487 1489
1510 1508 1505 1503 1501 1499 1497 1494 1491 1488 1486 1482 1479 1476 1475 1476 1477 1471 1470 1471 1473 1474 1476 1477 1479 1481 1482 1481 1479 1483 1479 1480 1480 1480 1479 1479 1479 1478 1479 1479 1480 1480 1481 1483 1486
1507 1504 1501 1499 1497 1496 1494 1491 1489 1486 1483 1479 1476 1474 1474 1474 1471 1469 1470 1470 1471 1472 1473 1475 1477 1479 1479 1477 1479 1479 1477 1476 1478 1479 1478 1478 1479 1479 1475 1476 1478 1479 1480 1481 1484
1502 1499 1497 1495 1493 1491 1489 1488 1486 1482 1479 1476 1474 1472 1472 1472 1468 1468 1468 1468 1469 1470 1471 1474 1476 1477 1477 1475 1476 1475 1474 1474 1475 1477 1477 1477 1477 1478 1469 1471 1475 1476 1477 1479 1481
1497 1494 1492 1490 1488 1486 1485 1483 1482 1479 1476 1474 1471 1469 1468 1467 1465 1467 1467 1467 1468 1469 1469 1472 1474 1476 1476 1473 1474 1473 1475 1473 1472 1473 1475 1477 1478 1468 1464 1469 1468 1471 1474 1475 1478
1494 1490 1487 1486 1483 1481 1479 1478 1477 1474 1472 1471 1469 1468 1464 1463 1463 1465 1466 1466 1467 1469 1469 1470 1473 1474 1474 1474 1473 1474 1476 1482 1469 1470 1475 1478 1474 1456 1456 1462 1463 1466 1469 1471 1474
1495 1489 1485 1481 1478 1474 1473 1472 1471 1470 1469 1468 1468 1468 1463 1462 1462 1462 1464 1465 1465 1468 1470 1470 1472 1473 1474 1476 1480 1478 1485 1480 1472 1467 1471 1475 1469 1457 1454 1457 1460 1462 1464 1467 1470
1494 1488 1483 1478 1473 1470 1468 1468 1467 1466 1466 1466 1467 1469 1462 1460 1460 1461 1463 1465 1465 1467 1470 1470 1471 1474 1475 1479 1484 1478 1479 1471 1469 1467 1468 1473 1466 1458 1456 1458 1456 1458 1460 1462 1464
1491 1486 1480 1476 1471 1468 1467 1466 1468 1467 1465 1462 1461 1457 1457 1458 1458 1458 1461 1464 1465 1467 1468 1467 1473 1471 1468 1470 1467 1466 1468 1470 1468 1464 1467 1468 1461 1453 1452 1453 1452 1452 1454 1457 1459
1489 1484 1478 1474 1472 1470 1468 1469 1473 1475 1463 1455 1451 1452 1454 1454 1456 1457 1460 1463 1464 1465 1464 1469 1468 1464 1464 1466 1469 1470 1468 1469 1466 1467 1469 1464 1458 1448 1445 1441 1439 1443 1447 1450 1455
1488 1482 1477 1473 1472 1472 1471 1472 1473 1472 1468 1448 1447 1448 1450 1453 1453 1453 1457 1458 1460 1462 1462 1466 1458 1455 1460 1462 1465 1467 1469 1466 1466 1468 1467 1467 1460 1444 1431 1430 1431 1433 1438 1443 1446
1489 1483 1477 1473 1474 1473 1473 1473 1472 1470 1469 1453 1447 1448 1450 1451 1453 1452 1454 1456 1456 1458 1458 1459 1453 1455 1458 1460 1461 1465 1460 1460 1464 1468 1480 1466 1479 1445 1428 1428 1426 1427 1430 1436 1441
1488 1483 1477 1474 1472 1474 1475 1473 1471 1471 1511 1449 1449 1449 1450 1453 1453 1453 1453 1454 1455 1453 1455 1454 1453 1456 1458 1457 1458 1461 1460 1461 1463 1467 1474 1467 1488 1444 1430 1428 1424 1424 1426 1430 1435
1488 1482 1477 1475 1474 1474 1473 1472 1472 1490 1504 1456 1450 1450 1451 1451 1452 1453 1454 1455 1454 1453 1452 1455 1455 1454 1454 1459 1458 1460 1462 1466 1470 1475 1506 1466 1466 1449 1429 1418 1415 1420 1422 1425 1430
1487 1482 1477 1476 1475 1473 1473 1473 1484 1499 1460 1460 1451 1448 1448 1449 1448 1449 1453 1456 1458 1462 1460 1455 1455 1455 1455 1460 1461 1460 1467 1493 1499 1517 1494 1459 1464 1439 1415 1411 1410 1413 1418 1422 1427
1487 1482 1479 1477 1476 1473 1473 1475 1490 1490 1474 1454 1450 1447 1449 1442 1443 1445 1451 1454 1451 1451 1464 1458 1463 1454 1452 1452 1455 1463 1463 1473 1483 1485 1468 1461 1457 1422 1409 1407 1406 1409 1416 1422 1427
1487 1482 1480 1478 1475 1474 1476 1478 1485 1476 1462 1457 1453 1460 1462 1443 1441 1442 1446 1445 1439 1444 1456 1457 1448 1452 1451 1450 1450 1459 1466 1456 1475 1499 1486 1455 1435 1414 1409 1410 1409 1411 1416 1420 1424
1486 1481 1481 1479 1476 1476 1477 1478 1473 1460 1458 1456 1457 1460 1477 1461 1447 1445 1443 1431 1430 1430 1435 1440 1451 1454 1454 1452 1453 1452 1454 1461 1476 1475 1480 1452 1436 1417 1413 1411 1411 1411 1414 1417 1421
1486 1482 1481 1479 1478 1478 1477 1478 1467 1462 1464 1462 1458 1458 1453 1457 1451 1455 1439 1428 1423 1425 1430 1434 1437 1457 1453 1452 1449 1457 1455 1456 1455 1456 1465 1463 1429 1403 1398 1400 1405 1406 1409 1413 1415
1486 1487 1481 1478 1479 1479 1480 1475 1471 1469 1465 1463 1460 1455 1451 1450 1449 1443 1439 1430 1423 1422 1433 1431 1437 1445 1448 1440 1441 1442 1442 1442 1446 1445 1457 1459 1427 1396 1397 1391 1395 1400 1406 1410 1413
1486 1482 1479 1479 1491 1491 1480 1478 1477 1477 1477 1470 1463 1455 1452 1451 1448 1438 1429 1428 1427 1424 1427 1428 1445 1455 1447 1446 1443 1442 1438 1437 1441 1448 1443 1453 1421 1398 1396 1393 1394 1398 1405 1408 1412
1488 1485 1479 1477 1477 1480 1483 1483 1480 1476 1473 1475 1470 1462 1462 1452 1447 1438 1429 1424 1428 1425 1423 1422 1432 1433 1428 1420 1432 1438 1432 1429 1432 1453 1438 1415 1424 1400 1399 1398 1396 1399 1402 1405 1408
1485 1482 1479 1485 1478 1476 1478 1477 1475 1479 1471 1469 1468 1469 1474 1464 1453 1443 1441 1435 1430 1426 1425 1424 1427 1429 1427 1423 1422 1423 1426 1427 1425 1422 1422 1413 1410 1400 1399 1397 1395 1396 1400 1402 1404
1481 1480 1476 1472 1472 1472 1473 1474 1467 1470 1469 1465 1466 1461 1465 1468 1467 1455 1454 1450 1436 1425 1424 1423 1422 1426 1432 1421 1423 1420 1419 1422 1418 1418 1414 1416 1410 1395 1390 1392 1393 1392 1395 1395 1397
1474 1471 1471 1464 1464 1467 1465 1463 1461 1464 1464 1461 1461 1459 1457 1455 1455 1455 1451 1448 1443 1439 1427 1422 1422 1428 1431 1419 1424 1422 1398 1402 1400 1409 1405 1409 1387 1390 1387 1386 1384 1386 1390 1389 1390